Location: Pace/Milton
(30.6162°N, 87.1503°W)
Time: 11:22:30
(UTC-06:00)

N. Korean satellite - Pass Details

Date: 02 December 2021
Orbit: 447 x 491 km, 97.3° (Epoch: 21 January)

Event Time Altitude Azimuth Distance (km) Brightness Sun altitude
Rises 04:33:34 0° 21° (NNE) 2,451 10.2 -24.4°
Reaches altitude 10° 04:35:42 10° 30° (NNE) 1,574 9.3 -23.9°
Maximum altitude 04:38:51 36° 99° (E) 719 7.9 -23.3°
Drops below altitude 10° 04:41:58 10° 168° (SSE) 1,565 9.4 -22.6°
Sets 04:44:05 0° 176° (S) 2,434 10.3 -22.2°
